Tracking 20942 objects as of 4-Jul-2020
HD Live streaming from Space Station
objects crossing your sky now

NSL-1

Track NSL-1 now!
10-day predictions


NORAD ID: 44391
Int'l Code: 2019-038E
Perigee: 567.5 km
Apogee: 598.5 km
Inclination: 97.7 °
Period: 96.2 minutes
Semi major axis: 6953 km
RCS: Unknown
Launch date: July 5, 2019
Source: Israel (ISRA)
Launch site: VOSTOCHNY COSMODROME (VOSTO)
aabbcc
Your satellite tracking list
Your tracking list is empty




NASA's NSSDC Master Catalog

Two Line Element Set (TLE):
1 44391U 19038E   20185.90099264 +.00000758 +00000-0 +70540-4 0  9997
2 44391 097.7284 147.6975 0022296 096.3939 263.9823 14.97100652054455
Source of the keplerian elements: AFSPC